This is the latest recevied weather packets stored in our database for station/object KQ4UPF. If no packets are shown the sender has not sent any weather packets the latest 10 day(s).
| Time | Temp. | Humidity | Pressure | Rain* | Wind** | Luminosity | Snow |
|---|---|---|---|---|---|---|---|
| 1777724434 | 10.56° C | 74% | 1016.3 hPa | 0 mm | - | 98 W/m² | - |
| 1777724132 | 10.56° C | 73% | 1016.3 hPa | 0 mm | - | 82 W/m² | - |
| 1777723828 | 10.56° C | 74% | 1016.2 hPa | 0 mm | - | 76 W/m² | - |
| 1777723525 | 10.56° C | 75% | 1016.3 hPa | 0 mm | - | 71 W/m² | - |
| 1777723222 | 10.56° C | 74% | 1016.1 hPa | 0 mm | - | 58 W/m² | - |
| 1777722920 | 10° C | 79% | 1016 hPa | 0 mm | - | 48 W/m² | - |
| 1777722615 | 10° C | 82% | 1016.1 hPa | 0 mm | - | 41 W/m² | - |
| 1777722313 | 9.44° C | 87% | 1015.8 hPa | 0 mm | - | 41 W/m² | - |
| 1777722009 | 9.44° C | 88% | 1015.8 hPa | 0 mm | - | 35 W/m² | - |
| 1777721707 | 9.44° C | 86% | 1015.8 hPa | 0 mm | - | 27 W/m² | - |
| 1777721406 | 9.44° C | 85% | 1015.8 hPa | 0 mm | - | 23 W/m² | - |
| 1777721103 | 9.44° C | 85% | 1015.5 hPa | 0 mm | - | 19 W/m² | - |
| 1777720800 | 9.44° C | 84% | 1015.6 hPa | 0 mm | - | 17 W/m² | - |
| 1777720497 | 9.44° C | 82% | 1015.5 hPa | 0 mm | - | 12 W/m² | - |
| 1777720195 | 9.44° C | 83% | 1015.5 hPa | 0 mm | - | 7 W/m² | - |
| 1777719892 | 9.44° C | 82% | 1015.6 hPa | 0 mm | - | 4 W/m² | - |
| 1777719589 | 10° C | 82% | 1015.7 hPa | 0 mm | - | 3 W/m² | - |
| 1777719287 | 10° C | 81% | 1015.6 hPa | 0 mm | - | 2 W/m² | - |
| 1777718984 | 10° C | 77% | 1015.4 hPa | 0 mm | - | 1 W/m² | - |
| 1777718681 | 10° C | 77% | 1015.7 hPa | 0 mm | - | 0 W/m² | - |
| 1777718378 | 10° C | 76% | 1015.6 hPa | 0 mm | - | 0 W/m² | - |
| 1777718076 | 10.56° C | 78% | 1015.5 hPa | 0 mm | - | 0 W/m² | - |
| 1777717773 | 10.56° C | 75% | 1015.7 hPa | 0 mm | - | 0 W/m² | - |
| 1777717470 | 10.56° C | 74% | 1015.5 hPa | 0 mm | - | 0 W/m² | - |
| 1777717167 | 10.56° C | 71% | 1015.5 hPa | 0 mm | - | 0 W/m² | - |
* Rain latest hour (hover to see other rain measurements)
** Current wind speed in m/s (hover to see current wind gust speed)